Spokane, WA
on Monday, January 21, 2013

Monday
Previous Day Next Day
Daily Summary
 ActualAverageRecord
Temperature
Mean Temperature °F / °C 30°F / -1°C  
Max Temperature 26°F / -3°C 35°F / 2°C 49°F / 9°C (1909)
Min Temperature 4°F / -16°C 26°F / -3°C -13°F / -25°C (1962)
Degree Days
Heating Degree Days 50 35  
Month to date heating degree days 891 759  
Since 1 July heating degree days 3316 3593  
Cooling Degree Days 0 0  
Month to date cooling degree days 0 0  
Year to date cooling degree days 0 0  
Moisture
Dew Point 12°F / -11°C   
Average Humidity 86    
Maximum Humidity 92    
Minimum Humidity 80    
Precipitation
Precipitation T in / T cm 0.06 in / 1.52 cm 1.26 in / 3.20 cm (1954)
Month to date precipitation 1.05 1.29  
Year to date precipitation 1.05 1.29  
Snow
Snow 0.00 in / 0.00 cm 0.30 in / 0.76 cm 12.70 in / 32.26 cm (1954)
Month to date snowfall 11.8 8.6  
Since 1 July snowfall 35.8 30.7  
Snow Depth 1.00 in / 2.54 cm   
Wind
Wind Speed 1 mph / 2 km/h   
Max Wind Speed 7 mph / 11 km/h   
Max Gust Speed 8 mph / 13 km/h   
Visibility 1 miles / 2 kilometers   
Events Fog   

Key: T is trace of precipitation, MM is missing value
Source: NWS Daily Summary
Time(PST)TemperatureDew PointHumidity Pressure Visibility Wind DirectionWind SpeedGust SpeedPrecipitationEvents Conditions
12:53 AM 12.9°F / -10.6°C 10.0°F / -12.2°C 88% 30.44 in / 1030.6 hPa 0.2 miles / 0.4 kilometers Calm Calm - N/A Fog Light Freezing Fog
1:53 AM 15.1°F / -9.4°C 12.0°F / -11.1°C 88% 30.44 in / 1030.7 hPa 0.1 miles / 0.2 kilometers Calm Calm - N/A Fog Light Freezing Fog
2:53 AM 18.0°F / -7.8°C 14.0°F / -10.0°C 84% 30.43 in / 1030.4 hPa 0.1 miles / 0.2 kilometers Calm Calm - N/A Fog Light Freezing Fog
3:53 AM 17.1°F / -8.3°C 12.9°F / -10.6°C 84% 30.42 in / 1030.1 hPa 0.1 miles / 0.2 kilometers Calm Calm - N/A Fog Light Freezing Fog
4:53 AM 18.0°F / -7.8°C 12.9°F / -10.6°C 81% 30.42 in / 1029.9 hPa 0.1 miles / 0.2 kilometers Calm Calm - N/A Fog Light Freezing Fog
5:53 AM 16.0°F / -8.9°C 12.9°F / -10.6°C 88% 30.42 in / 1029.9 hPa 0.1 miles / 0.2 kilometers Calm Calm - N/A Fog Light Freezing Fog
6:53 AM 17.1°F / -8.3°C 12.0°F / -11.1°C 81% 30.43 in / 1030.4 hPa 0.1 miles / 0.2 kilometers Calm Calm - N/A Fog Light Freezing Fog
7:53 AM 18.0°F / -7.8°C 14.0°F / -10.0°C 84% 30.43 in / 1030.3 hPa 0.1 miles / 0.2 kilometers Calm Calm - N/A Fog Light Freezing Fog
8:53 AM 17.1°F / -8.3°C 12.9°F / -10.6°C 84% 30.44 in / 1030.6 hPa 0.1 miles / 0.2 kilometers Calm Calm - N/A Fog Light Freezing Fog
9:28 AM 19.4°F / -7.0°C 15.8°F / -9.0°C 86% 30.31 in / 1026.3 hPa 0.1 miles / 0.2 kilometers Calm Calm - 0.01 in / 0.3 cm Fog Light Freezing Fog
9:53 AM 19.9°F / -6.7°C 15.1°F / -9.4°C 81% 30.43 in / 1030.4 hPa 0.1 miles / 0.2 kilometers Calm Calm - 0.01 in / 0.3 cm Fog Light Freezing Fog
10:53 AM 19.9°F / -6.7°C 16.0°F / -8.9°C 85% 30.43 in / 1030.5 hPa 0.1 miles / 0.2 kilometers Calm Calm - N/A Fog Light Freezing Fog
11:53 AM 19.0°F / -7.2°C 16.0°F / -8.9°C 88% 30.42 in / 1029.9 hPa 0.1 miles / 0.2 kilometers Calm Calm - N/A Fog Light Freezing Fog
12:53 PM 19.9°F / -6.7°C 18.0°F / -7.8°C 92% 30.39 in / 1029.1 hPa 0.1 miles / 0.2 kilometers Calm Calm - N/A Fog Light Freezing Fog
1:45 PM 24.8°F / -4.0°C 19.4°F / -7.0°C 80% 30.26 in / 1024.6 hPa 1.0 miles / 1.6 kilometers Calm Calm - N/A   Mostly Cloudy
1:53 PM 24.1°F / -4.4°C 19.9°F / -6.7°C 84% 30.37 in / 1028.3 hPa 1.0 miles / 1.6 kilometers Calm Calm - N/A   Mostly Cloudy
2:18 PM 24.8°F / -4.0°C 19.4°F / -7.0°C 80% 30.25 in / 1024.3 hPa 2.0 miles / 3.2 kilometers Calm Calm - N/A   Scattered Clouds
2:53 PM 24.1°F / -4.4°C 19.9°F / -6.7°C 84% 30.34 in / 1027.4 hPa 2.0 miles / 3.2 kilometers Calm Calm - N/A   Scattered Clouds
3:53 PM 21.9°F / -5.6°C 18.0°F / -7.8°C 85% 30.34 in / 1027.4 hPa 2.0 miles / 3.2 kilometers North 4.6 mph / 7.4 km/h - N/A   Scattered Clouds
4:53 PM 18.0°F / -7.8°C 15.1°F / -9.4°C 88% 30.35 in / 1027.5 hPa 2.0 miles / 3.2 kilometers SSW 3.5 mph / 5.6 km/h - N/A   Scattered Clouds
5:15 PM 17.6°F / -8.0°C 12.2°F / -11.0°C 79% 30.23 in / 1023.6 hPa 3.0 miles / 4.8 kilometers Calm Calm - N/A   Scattered Clouds
5:53 PM 12.9°F / -10.6°C 9.0°F / -12.8°C 84% 30.36 in / 1027.9 hPa 3.0 miles / 4.8 kilometers SW 3.5 mph / 5.6 km/h - N/A   Scattered Clouds
6:53 PM 10.9°F / -11.7°C 7.0°F / -13.9°C 84% 30.36 in / 1028.1 hPa 3.0 miles / 4.8 kilometers WSW 3.5 mph / 5.6 km/h - N/A   Scattered Clouds
7:53 PM 10.9°F / -11.7°C 8.1°F / -13.3°C 88% 30.38 in / 1028.5 hPa 3.0 miles / 4.8 kilometers WSW 4.6 mph / 7.4 km/h - N/A   Scattered Clouds
8:53 PM 8.1°F / -13.3°C 3.9°F / -15.6°C 83% 30.38 in / 1028.5 hPa 3.0 miles / 4.8 kilometers SSW 5.8 mph / 9.3 km/h - N/A   Scattered Clouds
9:53 PM 7.0°F / -13.9°C 1.9°F / -16.7°C 80% 30.37 in / 1028.4 hPa 3.0 miles / 4.8 kilometers Calm Calm - N/A   Scattered Clouds
10:53 PM 6.1°F / -14.4°C 1.9°F / -16.7°C 83% 30.39 in / 1029.0 hPa 3.0 miles / 4.8 kilometers Calm Calm - N/A   Scattered Clouds
11:53 PM 6.1°F / -14.4°C 1.9°F / -16.7°C 83% 30.39 in / 1029.0 hPa 1.0 miles / 1.6 kilometers Calm Calm - N/A   Overcast
Moon Phase
Jan. 21 Jan. 26 Feb. 03 Feb. 10 Feb. 17
Sunrise:07:28 AM (PST) Moon Rise:12:16 PM (PST)1/21
Sunset:04:35 PM (PST) Moon Set:03:02 AM (PST)1/21

Copyright © 2014 The Weather Underground, Inc.